Location: *
(51.1248°S, 108.4023°W)
Time: 05:47:32
(UTC+00:00)

Envisat - Pass Details

Date: 25 September 2021
Orbit: 764 x 766 km, 98.2° (Epoch: 17 October)

Event Time Altitude Azimuth Distance (km) Brightness Sun altitude
Rises 09:27:31 0° 73° (ENE) 3,249 6.6 -29.8°
Reaches altitude 10° 09:30:48 10° 96° (E) 2,331 6.0 -29.4°
Maximum altitude 09:33:33 15° 128° (SE) 2,023 6.0 -29.1°
Drops below altitude 10° 09:36:19 10° 161° (SSE) 2,344 6.3 -28.8°
Sets 09:39:38 0° 183° (S) 3,279 6.8 -28.5°
